East Milton, MA

4:13 PM EDT on June 26, 2017 (GMT -0400)
East Milton

Weather History for KMQE - December, 2013

Change the Weather History Date:

Tuesday, December 10, 2013

  Actual Average (KOWD) Record (KOWD)
Temperature  
Mean Temperature 26 °F -  
Max Temperature 32 °F 41 °F 63 °F (2008)
Min Temperature 21 °F 23 °F 1 °F (2000)
Degree Days  
Heating Degree Days 38    
Moisture  
Dew Point 27 °F    
Average Humidity 94    
Maximum Humidity 100    
Minimum Humidity 81    
Precipitation  
Precipitation 0.14 in - - ()
Sea Level Pressure  
Sea Level Pressure 29.91 in    
Wind  
Wind Speed 11 mph (WSW)    
Max Wind Speed 21 mph    
Max Gust Speed 29 mph    
Averages and records for this station are not official NWS values.
T = Trace of Precipitation, MM = Missing Value Source: NWS Daily Summary

Daily Weather History Graph

Daily Weather History Graph

Search for Another Location

Airport or City:

Trip Planner

Search our weather history database for the weather conditions in past years. The results will help you decide how hot, cold, wet, or windy it might be!

Date:

Astronomy

Dec. 10, 2013 Rise Set
Actual Time 7:02 AM EST 4:12 PM EST
Civil Twilight 6:30 AM EST 4:44 PM EST
Nautical Twilight 5:55 AM EST 5:19 PM EST
Astronomical Twilight 5:21 AM EST 5:53 PM EST
Moon 12:17 PM EST (12/10) 12:10 AM EST (12/10)
Length of Visible Light 10h 13m
Length of Day
9h 09m
First Quarter, 61% of the Moon is Illuminated
Dec 10
First Quarter
Dec 17
Full
Dec 25
Last Quarter
Jan 1
New
Jan 7
First Quarter

Hourly Weather History & Observations

Time (EST) Temp. Windchill Dew Point Humidity Pressure Visibility Wind Dir Wind Speed Gust Speed Precip Events Conditions
12:54 AM 32.0 °F 23.0 °F 32.0 °F 100% 29.93 in - WSW 11.5 mph - N/A   Unknown
1:54 AM 32.0 °F 22.5 °F 32.0 °F 100% 29.94 in - WSW 12.7 mph - N/A   Unknown
2:54 AM 32.0 °F 21.6 °F 30.9 °F 96% 29.92 in - West 15.0 mph - N/A   Unknown
3:54 AM 30.9 °F 21.7 °F 30.9 °F 100% 29.91 in - West 11.5 mph - N/A   Unknown
4:54 AM 30.9 °F 21.2 °F 30.9 °F 100% 29.94 in - West 12.7 mph - N/A   Unknown
5:54 AM 32.0 °F 23.6 °F 30.0 °F 92% 29.95 in - West 10.4 mph - N/A   Unknown
6:54 AM 32.0 °F 26.4 °F 30.9 °F 96% 29.93 in - WSW 5.8 mph - N/A   Unknown
7:54 AM 30.9 °F 22.8 °F 30.0 °F 96% 29.97 in - SW 9.2 mph - N/A   Unknown
8:54 AM 32.0 °F 24.2 °F 28.9 °F 88% 29.95 in - SW 9.2 mph - N/A   Unknown
9:54 AM 30.9 °F 24.3 °F 30.9 °F 100% 29.94 in - SW 6.9 mph - 0.01 in   Unknown
10:54 AM 30.9 °F 23.5 °F 30.0 °F 96% 29.91 in - WSW 8.1 mph - 0.03 in   Unknown
11:54 AM 30.0 °F 24.1 °F 30.0 °F 100% 29.86 in - SW 5.8 mph - 0.02 in   Unknown
12:54 PM 30.0 °F 23.2 °F 28.9 °F 96% 29.83 in - SW 6.9 mph - N/A   Unknown
1:54 PM 30.0 °F 21.7 °F 30.0 °F 100% 29.83 in - WSW 9.2 mph - 0.01 in   Unknown
2:54 PM 30.0 °F 21.1 °F 28.9 °F 96% 29.81 in - WSW 10.4 mph - 0.02 in   Unknown
3:54 PM 30.0 °F 20.5 °F 28.9 °F 96% 29.82 in - West 11.5 mph - 0.02 in   Unknown
4:54 PM 28.9 °F 19.2 °F 28.0 °F 96% 29.85 in - WNW 11.5 mph 17.3 mph 0.02 in   Unknown
5:54 PM 28.0 °F 18.6 °F 27.0 °F 96% 29.86 in - WNW 10.4 mph - 0.01 in   Unknown
6:54 PM 27.0 °F 16.1 °F 24.1 °F 89% 29.88 in - West 12.7 mph 23.0 mph N/A   Unknown
7:54 PM 25.0 °F 11.7 °F 21.9 °F 88% 29.90 in - West 17.3 mph 28.8 mph N/A   Unknown
8:54 PM 23.0 °F 10.1 °F 19.0 °F 85% 29.92 in - WNW 15.0 mph 24.2 mph N/A   Unknown
9:54 PM 21.9 °F 9.8 °F 18.0 °F 85% 29.96 in - West 12.7 mph - N/A   Unknown
10:54 PM 21.9 °F 6.5 °F 17.1 °F 82% 29.98 in - West 20.7 mph 27.6 mph N/A   Unknown
11:54 PM 21.0 °F 7.1 °F 16.0 °F 81% 30.01 in - West 16.1 mph - N/A   Unknown